{"data":{"norad_id":51109,"intl_designator":"2022-005F","name":"STARLINK-3358","alt_names":[],"object_type":"PAYLOAD","status":"ACTIVE","operator":null,"country":"US","launch_date":"2022-01-19","launch_site_code":"AFETR","launch_vehicle":null,"mission":null,"orbit_class":"UNKNOWN","rcs_meters":null,"size_class":null,"mass_kg":null,"dimensions":null,"purposes":["comms"],"wikipedia_slug":null,"has_3d_model":false,"image_url":null,"decayed_at":null,"tle_current":{"epoch":"2026-09-20T04:31:46.374816Z","epoch_age_seconds":75402,"freshness":"FRESH","line1":"1 51109U 22005F   26263.18873119  .00001232  00000+0  51430-4 0  9996","line2":"2 51109  53.1601 127.3526 0001108  94.5852 265.5276 15.31706927258125","mean_motion":15.31706927,"eccentricity":0.0001108,"inclination_deg":53.1601,"raan_deg":127.3526,"arg_perigee_deg":94.5852,"mean_anomaly_deg":265.5276,"bstar":5.143e-5,"rev_number":25812,"period_min":94.01276279532,"perigee_km":469.96049299375,"apogee_km":471.47819956009,"semimajor_km":6848.8563462769,"source":"CELESTRAK","updated_at":"2026-09-20T09:00:39.584746Z"}}}